{"data":{"norad_id":65722,"intl_designator":"2025-214L","name":"GEESAT-6 10","alt_names":[],"object_type":"PAYLOAD","status":"ACTIVE","operator":null,"country":"PRC","launch_date":"2025-09-24","launch_site_code":"YSLA","launch_vehicle":null,"mission":null,"orbit_class":"UNKNOWN","rcs_meters":null,"size_class":null,"mass_kg":null,"dimensions":null,"purposes":[],"wikipedia_slug":null,"has_3d_model":false,"image_url":null,"decayed_at":null,"tle_current":{"epoch":"2026-05-25T03:46:48.686016Z","epoch_age_seconds":57347,"freshness":"FRESH","line1":"1 65722U 25214L   26145.15750794  .00001394  00000+0  19590-3 0  9995","line2":"2 65722  49.9910  55.4109 0011658 144.1575 216.0147 14.83278115 36086","mean_motion":14.83278115,"eccentricity":0.0011658,"inclination_deg":49.991,"raan_deg":55.4109,"arg_perigee_deg":144.1575,"mean_anomaly_deg":216.0147,"bstar":0.0001959,"rev_number":3608,"period_min":97.082265654543,"perigee_km":610.83852297255,"apogee_km":627.15303776326,"semimajor_km":6997.1327803679,"source":"CELESTRAK","updated_at":"2026-05-25T13:38:05.629253Z"}}}